CAPE
0 0 0 0 0 0 0 0 0 854 1721 2064 2220 2064 2144 1588 1292 1232 1191 918 893 1007 888 805 891 627 419 138 87 9 17 12 25 11 24 8 21 17 33 30 20 5 15
0 0 0 0 0 0 0 0 0 0 429 1398 1438 1913 1961 1778 1275 1102 1121 1038 1040 1045 619 801 503 374 143 3 0 0 1 0 2 3 16 4 15 8 23 26 38 8 19
0 0 0 0 0 0 0 0 0 0 0 0 895 1111 1463 1093 864 746 621 1253 1054 785 611 485 313 147 5 0 0 1 0 0 1 1 4 1 2 11 15 26 26 13 7
0 0 0 0 0 0 0 0 0 0 0 6 140 953 1023 945 718 559 506 947 916 674 444 373 200 8 0 0 0 1 0 0 1 2 0 0 0 0 10 19 21 12 0
0 0 0 0 0 0 0 0 0 0 1 11 231 886 963 810 484 319 296 418 603 543 349 401 166 2 1 0 0 0 1 0 0 1 0 0 2 0 0 2 29 29 11
0 0 0 0 0 0 1 0 0 0 3 46 153 869 857 658 438 430 364 348 573 544 476 250 43 0 1 1 1 1 1 1 0 0 0 0 0 0 0 0 25 39 29
0 0 0 0 0 3 9 4 0 0 0 58 65 651 925 652 460 610 741 534 432 411 304 235 27 4 2 0 1 2 2 1 0 0 1 0 1 0 0 0 6 41 32
0 0 13 11 6 0 0 0 0 0 0 0 105 208 481 643 415 674 958 588 362 301 278 208 35 1 4 1 2 2 2 1 1 1 0 5 6 0 9 6 2 21 33
27 33 20 0 0 0 0 0 0 0 0 0 0 256 167 289 298 693 874 493 343 216 151 75 1 5 0 2 1 2 1 1 1 2 1 3 7 9 12 0 4 21 26
52 6 0 0 0 0 0 0 0 0 0 0 0 68 18 7 153 536 555 388 257 106 75 2 3 2 0 1 1 1 2 1 2 3 3 5 5 7 6 7 23 27 32
64 0 0 0 0 0 0 0 0 0 0 0 0 43 0 0 121 353 512 292 110 22 64 1 6 3 0 3 1 1 1 1 1 2 1 0 1 4 2 3 13 12 52
0 0 0 0 0 0 0 0 0 0 0 0 2 5 0 2 60 299 329 126 2 12 6 1 0 2 1 1 1 1 1 1 1 2 1 3 1 5 6 15 19 9 8
0 0 0 0 0 0 0 0 0 0 0 0 1 6 3 5 10 155 93 0 0 4 2 4 1 0 1 0 1 1 0 1 0 1 0 1 0 1 0 0 3 2 3
0 0 0 0 0 0 0 0 0 0 0 1 2 8 4 2 0 3 0 0 0 0 0 1 0 0 1 0 1 1 1 1 0 0 1 1 0 0 0 0 0 2 4
0 0 0 0 0 1 1 1 3 2 2 3 1 3 2 2 4 0 0 0 1 1 0 0 0 0 0 0 0 1 1 1 1 0 0 0 1 0 0 0 0 0 0
0 0 0 1 1 2 3 3 2 3 3 3 0 9 7 3 1 0 0 0 5 1 0 0 0 0 0 0 0 0 0 0 1 0 0 0 0 0 0 0 0 0 1
1 2 2 3 3 3 3 4 4 3 2 3 1 0 4 1 1 0 0 1 3 2 1 0 0 1 0 0 0 0 0 0 0 0 0 0 0 0 0 0 0 0 0
3 4 3 3 3 3 3 3 2 4 1 7 6 2 1 0 1 3 3 2 3 5 6 1 1 1 0 0 0 0 2 0 0 0 0 0 0 0 0 0 0 1 3
2 3 2 2 2 3 3 3 3 3 0 3 6 7 1 1 2 4 4 5 2 2 6 1 0 0 0 0 0 0 1 4 0 0 0 0 0 0 0 0 0 5 15
3 4 3 2 3 2 1 3 3 2 3 0 2 4 7 1 0 0 0 0 0 0 1 1 7 5 3 2 0 0 1 0 0 0 1 0 0 0 0 0 0 0 16
3 2 1 3 2 2 2 1 1 2 2 2 2 2 2 7 8 4 4 1 1 3 11 11 16 14 9 4 1 0 0 0 0 1 2 5 0 0 1 2 5 11 10
4 3 2 2 2 1 2 1 0 0 1 4 3 2 1 1 4 10 12 12 9 8 12 15 17 15 13 11 9 1 1 4 1 9 11 7 5 8 5 5 5 2 1
3 3 1 2 3 2 1 1 0 0 0 3 4 2 2 1 1 2 2 5 7 11 11 11 12 14 9 8 10 9 8 7 12 7 7 8 9 8 7 5 5 2 3
2 2 2 2 2 1 1 1 0 0 0 3 4 3 2 4 2 2 0 0 3 8 9 9 8 8 7 6 3 3 5 6 1 2 3 2 2 2 1 2 2 2 1
0 0 2 2 2 1 0 0 0 0 0 0 1 1 0 1 1 1 2 2 2 2 4 4 4 4 3 3 3 3 3 3 2 1 1 1 2 3 2 1 0 0 0
0 0 1 1 1 1 0 0 0 0 0 1 0 0 1 1 1 0 1 2 2 1 1 1 0 1 2 2 2 1 1 1 0 0 1 1 0 0 0 0 0 0 0
CIN
0 0 0 0 0 0 0 0 0 -28 -31 -34 -35 -26 -16 -78 -99 -96 -91 -178 -153 -130 -130 -120 -69 -68 -65 -97 -39 -106 -22 -14 -24 -6 -7 -15 -4 -7 -10 -35 -17 -18 -10
0 0 0 0 0 0 0 0 0 0 -25 -27 -50 -22 -21 -23 -97 -119 -80 -117 -130 -120 -172 -136 -160 -144 -152 -90 -1 0 -2 -1 -9 -10 -4 -4 -4 -6 -12 -18 -25 -31 -19
0 0 0 0 0 0 0 0 0 0 0 0 -23 -22 -48 -120 -172 -199 -166 -65 -114 -152 -163 -178 -207 -214 -102 -4 -10 0 0 0 0 -4 -16 0 -1 -5 -20 -12 -24 -28 -32
0 0 0 0 0 0 0 0 0 0 0 -176 -118 -32 -124 -144 -226 -242 -226 -103 -105 -154 -185 -196 -234 -94 0 0 -3 0 0 0 0 -4 0 0 0 0 -2 -12 -13 -25 0
0 0 0 0 0 0 0 0 0 0 -50 -164 -73 -46 -110 -141 -210 -272 -274 -202 -153 -168 -190 -174 -233 0 0 0 0 0 0 0 0 0 0 0 -12 0 0 -7 -7 -13 -21
0 0 0 0 0 0 -7 0 0 0 -90 -148 -95 -25 -105 -155 -161 -208 -242 -243 -170 -175 -173 -224 -279 -1 -1 0 0 0 0 0 0 0 0 0 0 0 0 -27 -14 -6 -8
0 0 0 0 0 -26 -19 -16 0 0 0 -125 -150 -13 -31 -115 -122 -88 -126 -185 -225 -222 -241 -232 -305 -2 -13 0 0 0 0 0 0 0 0 -1 -3 0 0 -4 -22 -5 -10
0 0 -22 -25 -40 0 0 0 0 0 0 0 -129 -96 -46 -81 -101 -44 -47 -173 -253 -266 -239 -241 -285 -4 -3 -1 0 0 0 0 0 0 0 0 -2 -15 -16 -6 -13 -2 -6
-4 -16 -12 -2 0 0 0 0 0 0 0 0 0 -126 -205 -150 -132 -32 -37 -156 -222 -283 -277 -298 0 -7 0 0 0 0 0 0 0 0 0 0 -2 -19 -12 0 -29 -6 -8
-6 -15 0 0 0 0 0 0 0 0 0 0 0 -274 -354 -242 -222 -40 -44 -129 -225 -303 -322 -166 -6 -20 -2 -1 -1 -1 0 0 0 0 0 0 -1 -9 -10 -18 -27 -14 -15
-46 0 0 0 0 0 0 0 0 0 0 0 0 -318 0 -49 -235 -91 -32 -128 -267 -372 -300 0 -5 0 -3 0 0 0 0 0 0 0 0 -4 -13 -14 -25 -20 -31 -24 -28
0 0 0 0 0 0 0 0 0 0 0 0 -15 -194 0 -16 -278 -98 -79 -199 -282 -398 -339 -13 -4 -5 0 0 0 0 0 0 0 0 0 0 0 -8 -14 -13 -13 -40 -43
0 0 0 0 0 0 0 0 0 0 0 0 0 -10 -38 -12 -102 -139 -207 0 0 -3 -2 -6 -1 -2 0 0 0 0 0 0 0 0 0 0 0 -2 0 -17 -21 -27 -28
0 0 0 0 0 0 0 0 0 0 0 0 0 -8 -10 -11 0 -176 0 0 -2 0 0 -3 -5 0 -3 0 0 0 0 0 0 0 0 0 0 0 0 0 0 -30 -28
0 0 0 0 0 0 0 0 0 0 0 0 0 -3 -8 -5 -3 -45 0 0 -5 -3 -2 0 -6 -5 0 0 0 0 0 0 0 0 0 0 0 0 0 0 0 0 0
0 0 0 0 0 0 0 0 0 0 0 0 0 0 0 -1 0 0 0 0 -3 -4 -2 0 -5 -4 0 0 0 0 0 0 0 0 0 0 0 0 0 0 0 0 -41
0 0 0 0 0 0 0 0 0 0 0 0 0 0 -2 -1 0 0 -1 -5 -4 -3 -1 0 0 -2 -1 0 0 0 0 0 0 0 0 0 0 0 0 0 0 0 0
0 0 0 0 0 0 0 0 0 0 0 0 0 0 -6 -1 0 0 -1 -11 -5 -2 -1 -7 -3 -3 0 0 0 0 -2 0 0 0 0 0 0 0 0 0 0 0 0
0 0 0 0 0 0 0 0 0 0 0 0 0 0 0 0 0 0 -4 -1 -1 -3 -4 -1 -1 0 0 0 0 0 -3 -1 0 0 0 0 0 0 0 0 0 0 0
0 0 0 0 0 0 0 0 0 0 0 0 0 0 0 0 0 0 0 0 0 0 0 0 0 0 0 0 0 0 0 0 0 0 0 0 0 0 0 0 0 0 0
0 0 0 0 0 0 0 0 0 0 0 0 0 0 0 0 0 0 0 0 0 0 0 0 0 0 0 0 0 0 0 0 0 0 0 0 0 0 0 0 0 0 0
0 0 0 0 0 0 0 0 0 0 0 0 0 0 0 0 0 0 0 0 0 0 0 0 0 0 0 0 0 0 0 0 0 0 0 0 0 0 0 0 0 0 0
0 0 0 0 0 0 0 0 0 0 0 0 0 0 0 0 0 0 0 0 0 0 0 0 0 0 0 0 0 0 0 0 0 0 0 0 0 0 0 0 0 0 0
0 0 0 0 0 0 0 0 0 0 0 0 0 0 0 0 0 0 0 0 0 0 0 0 0 0 0 0 0 0 0 0 0 0 0 0 0 0 0 0 0 0 0
0 0 0 0 0 0 0 0 0 0 0 0 0 0 0 0 0 0 0 0 0 0 0 0 0 0 0 0 0 0 0 0 0 0 0 0 0 0 0 0 0 0 0
0 0 0 0 0 0 0 0 0 0 0 0 0 0 0 0 0 0 0 0 0 0 0 0 0 0 0 0 0 0 0 0 0 0 0 0 0 0 0 0 0 0 0
Wind_Speed
17 17 16 19 22 17 17 17 15 11 12 14 14 16 16 14 14 13 12 10 9 8 7 6 4 5 7 6 5 7 9 9 8 11 15 21 19 18 16 9 8 7 10
20 18 16 13 15 17 17 20 21 21 17 17 16 18 18 16 15 14 14 11 10 9 7 7 6 6 7 7 6 6 10 8 8 13 12 21 21 19 20 12 9 9 13
24 24 20 13 14 18 20 23 24 26 21 19 18 19 18 19 18 17 17 14 11 9 8 7 7 7 8 7 7 6 7 7 7 7 6 17 20 17 24 12 10 9 12
25 26 19 14 15 18 19 21 25 26 26 19 19 18 19 21 20 18 17 17 13 10 9 8 8 7 8 8 8 6 7 7 8 9 9 13 22 17 20 18 11 10 10
26 20 12 13 15 17 16 18 22 27 27 26 18 19 21 22 20 18 16 17 16 13 11 10 9 8 9 8 8 7 8 8 8 10 9 6 15 19 18 21 19 12 11
13 13 12 15 19 18 19 23 27 29 26 25 24 19 20 20 20 19 16 15 16 14 12 10 9 9 8 8 7 8 8 9 9 10 10 11 12 20 19 18 18 13 14
12 12 12 16 20 22 24 25 28 32 32 26 26 22 19 19 19 19 16 14 15 15 13 11 9 9 8 7 6 7 7 9 10 12 12 14 15 13 16 17 15 17 15
9 11 11 16 21 25 30 33 35 37 35 38 30 23 24 19 18 19 15 13 13 13 11 10 9 8 8 5 5 6 6 8 10 11 15 13 14 20 20 17 16 19 18
6 9 13 17 23 28 31 35 37 40 39 41 42 23 21 20 23 19 16 13 12 11 10 9 9 8 6 5 4 4 6 7 9 9 10 12 17 18 21 17 19 19 19
11 15 16 20 25 29 33 36 38 40 41 43 44 27 22 20 20 21 17 15 13 12 9 9 8 7 6 4 4 3 5 7 8 9 8 7 10 19 16 17 21 31 17
14 17 21 25 28 31 35 37 39 40 42 42 45 23 22 20 21 22 17 13 12 11 9 7 8 7 5 5 4 5 5 7 7 9 8 10 9 9 9 11 26 27 26
17 21 25 29 33 35 36 39 41 41 41 40 37 19 20 21 22 22 18 14 13 12 9 8 8 7 4 5 5 5 6 8 8 10 12 13 13 12 10 8 11 17 25
23 26 29 32 34 36 38 40 42 42 41 39 36 22 21 21 22 22 16 14 13 13 9 7 7 6 4 5 5 6 6 8 10 11 14 15 15 15 14 14 12 21 29
26 30 32 34 36 37 39 41 43 43 40 38 34 21 20 20 21 20 17 16 13 12 10 9 8 6 3 3 3 4 5 7 7 10 12 15 17 16 14 15 14 14 18
29 31 34 36 37 38 39 42 43 44 40 38 34 19 19 20 20 18 18 17 14 12 11 9 8 7 4 3 1 2 4 6 6 8 10 17 18 13 14 15 15 15 16
30 32 35 36 37 38 40 43 44 43 40 38 31 18 17 16 17 17 17 16 15 11 10 9 7 5 5 2 1 2 1 0 1 2 6 6 12 13 11 11 11 13 12
30 32 34 35 36 37 40 43 43 41 37 31 23 14 14 16 17 19 19 18 16 14 12 10 9 7 6 1 3 2 3 4 3 2 1 2 4 6 7 6 6 12 17
30 32 33 35 35 36 39 41 41 38 33 24 22 19 13 19 19 18 18 18 17 15 13 10 10 9 9 3 1 2 6 5 4 3 3 2 2 2 5 6 9 13 16
29 30 31 32 33 36 38 40 39 36 28 25 23 23 21 18 17 17 18 18 16 17 15 13 13 10 11 12 7 6 9 8 8 10 11 9 3 0 3 2 3 7 11
27 29 29 31 33 36 37 37 37 33 26 22 21 20 18 19 17 16 17 18 13 13 11 12 12 11 13 15 14 11 10 9 10 12 15 17 14 4 2 4 5 7 11
27 28 28 30 32 34 36 36 33 31 23 17 17 15 12 16 15 15 14 13 11 10 12 11 11 12 15 17 17 14 14 9 10 13 16 17 17 11 10 10 10 12 9
27 27 28 29 31 32 34 31 32 28 18 15 12 12 10 12 12 12 12 10 8 12 11 9 9 10 11 12 13 12 11 10 11 13 14 14 13 12 10 10 8 7 8
26 27 26 27 29 30 32 26 23 26 19 16 13 14 12 6 5 7 8 10 9 9 9 8 7 9 10 11 12 11 9 10 10 10 9 10 11 11 12 11 11 11 12
25 25 25 26 27 28 28 25 23 21 21 19 15 14 12 9 8 5 3 5 8 5 7 6 7 8 12 13 13 11 10 9 9 9 11 11 12 12 13 12 13 14 13
24 24 24 25 26 25 26 25 23 21 19 19 17 15 11 10 10 9 3 4 4 3 4 6 7 7 8 9 9 9 9 9 9 9 11 12 12 13 13 14 14 13 13
24 24 24 24 25 26 26 25 25 23 21 18 15 14 12 12 10 10 11 15 12 11 11 10 9 8 8 9 9 10 11 11 11 11 12 12 13 13 13 13 13 14 14
Wind_Direction
269 267 262 270 275 273 276 288 287 279 268 271 271 267 270 269 272 275 276 266 262 253 255 273 295 317 311 301 292 299 293 296 278 287 292 276 253 247 247 226 184 196 233
266 268 267 262 270 275 285 285 286 287 285 276 273 276 270 273 275 278 279 253 236 247 246 272 279 301 307 302 290 283 302 296 262 281 281 270 251 245 254 233 223 219 243
264 268 267 260 272 277 284 286 286 286 283 277 276 277 283 280 275 271 270 264 250 245 252 271 288 295 298 289 283 260 281 283 261 255 307 258 250 232 249 235 217 217 236
270 273 267 260 278 284 289 292 290 290 289 280 273 265 270 275 275 272 265 263 256 249 254 267 278 287 296 290 282 267 274 269 251 266 274 278 246 233 237 247 246 226 224
263 267 264 275 280 290 291 296 296 292 291 289 272 267 271 276 278 271 264 247 253 246 250 265 281 286 293 289 282 271 265 253 245 251 237 254 254 248 240 241 260 249 244
256 262 272 279 286 293 294 295 296 293 296 293 288 271 270 272 272 269 260 251 248 244 248 260 273 284 289 284 277 274 259 244 242 251 230 216 244 239 240 244 254 248 245
261 273 279 279 288 293 302 301 298 295 295 297 289 283 276 268 267 266 255 249 241 247 246 255 269 280 283 278 276 262 247 231 242 250 241 251 257 237 237 246 243 253 255
276 281 292 292 293 297 298 300 295 294 293 289 291 281 281 275 267 261 252 237 240 246 249 248 269 276 285 264 264 258 230 225 229 254 247 252 237 242 254 251 231 253 257
301 307 312 299 297 299 299 301 298 292 291 284 280 281 273 272 272 261 265 240 247 252 242 249 262 276 260 266 257 255 226 234 232 241 209 202 248 241 250 249 254 245 251
309 306 310 305 304 302 300 303 301 295 292 285 276 281 270 272 264 262 251 245 244 249 244 256 265 271 259 253 235 251 246 227 235 250 223 210 216 242 250 250 251 246 258
309 310 310 307 307 306 304 303 305 300 292 287 277 273 269 272 263 257 251 238 240 249 251 258 271 271 240 236 232 237 244 218 226 230 225 195 196 206 191 222 251 251 260
321 318 313 310 308 305 304 304 306 303 297 290 287 273 271 270 260 253 243 240 242 253 253 263 276 274 245 242 233 218 247 227 234 230 232 243 230 202 209 211 247 254 261
314 313 313 309 307 303 304 306 306 305 298 292 286 282 273 263 253 252 236 238 242 251 254 258 275 278 260 261 255 220 204 239 238 244 242 237 237 228 229 224 249 262 263
308 307 307 307 307 308 308 305 307 305 299 292 287 281 271 262 248 242 235 235 243 243 255 272 282 291 290 285 256 227 199 186 253 260 238 239 237 240 235 233 239 253 259
311 309 308 308 308 308 309 309 307 305 300 290 286 281 272 261 245 226 231 233 240 241 256 267 281 296 315 319 265 234 171 167 179 185 257 263 253 230 236 246 251 238 251
316 314 313 312 311 311 310 310 310 307 301 290 288 282 269 254 232 224 228 226 235 235 249 260 271 290 321 358 26 315 343 322 187 164 155 171 261 251 223 237 235 236 247
320 321 319 317 315 316 317 317 318 315 311 301 291 275 259 243 236 229 227 231 233 238 244 255 264 279 308 30 85 59 359 349 343 345 121 161 168 170 184 203 244 267 273
322 324 325 324 323 326 326 326 326 325 320 307 297 282 252 242 238 228 227 228 232 240 244 249 259 271 293 315 17 26 337 345 354 2 355 346 311 228 262 265 278 284 285
332 333 336 336 334 335 335 336 335 331 318 301 291 279 267 239 229 226 224 228 231 237 249 257 263 270 286 288 289 297 301 314 316 314 309 309 324 157 160 201 258 288 295
343 343 344 344 342 340 340 338 337 330 317 306 283 278 263 245 233 229 226 233 229 236 241 252 266 277 280 286 282 285 295 304 308 308 304 300 301 283 231 255 258 277 287
344 343 346 347 344 344 347 346 337 334 313 300 296 291 274 249 237 231 230 222 226 230 239 248 269 283 288 290 284 284 287 295 307 308 306 308 306 302 299 292 286 288 294
336 338 345 346 347 346 347 346 349 336 316 319 311 313 300 265 247 231 235 225 214 225 237 248 269 294 307 305 303 298 301 300 305 309 315 320 327 329 324 315 309 309 316
341 345 347 349 351 348 353 340 332 343 329 329 333 346 335 280 273 274 236 244 234 224 236 251 272 293 318 328 338 328 331 322 325 322 340 344 349 349 342 334 325 320 320
342 340 341 348 350 350 348 339 336 340 349 355 358 355 340 337 350 343 328 257 245 232 258 271 291 311 299 305 311 319 328 340 342 348 349 350 350 346 349 342 336 333 330
343 340 335 339 343 343 344 342 341 343 345 356 1 6 358 14 28 26 19 10 352 359 339 313 322 322 326 321 330 335 336 340 340 341 345 342 343 345 347 347 344 341 343
340 338 336 338 343 348 346 342 348 349 350 353 351 356 356 10 12 25 38 34 36 36 32 22 19 14 14 6 5 359 355 354 353 353 348 343 344 345 348 351 352 353 356